TimeEST,TemperatureF,Dew PointF,Humidity,Sea Level PressureIn,VisibilityMPH,Wind Direction,Wind SpeedMPH,Gust SpeedMPH,PrecipitationIn,Events,Conditions,WindDirDegrees,DateUTC
12:00 AM,78.8,68.0,69,29.92,6.2,ESE,5.8,-,N/A,,Partly Cloudy,120,2014-02-28 05:00:00
1:00 AM,78,71,72,29.92,12,East,6.9,,,,Scattered Clouds,100,2014-02-28 06:00:00
1:00 AM,78.8,69.8,74,29.92,6.2,East,6.9,-,N/A,,Partly Cloudy,100,2014-02-28 06:00:00
2:00 AM,77.0,68.0,74,29.89,6.2,ESE,6.9,-,N/A,,Partly Cloudy,110,2014-02-28 07:00:00
3:00 AM,77.0,69.8,78,29.89,6.2,East,6.9,-,N/A,,Partly Cloudy,100,2014-02-28 08:00:00
4:00 AM,78,68,64,29.91,12,ESE,6.9,,,,Scattered Clouds,110,2014-02-28 09:00:00
4:00 AM,77.0,68.0,74,29.89,6.2,ESE,6.9,-,N/A,,Partly Cloudy,110,2014-02-28 09:00:00
5:00 AM,77.0,68.0,74,29.92,-9999.0,East,5.8,-,N/A,,Partly Cloudy,100,2014-02-28 10:00:00
6:00 AM,77.0,68.0,74,29.92,6.2,ESE,5.8,-,N/A,,Partly Cloudy,110,2014-02-28 11:00:00
7:00 AM,76,70,78,29.96,15,NW,3.5,,,,Haze,320,2014-02-28 12:00:00
7:00 AM,77.0,69.8,78,29.95,6.2,NW,3.5,-,N/A,,Partly Cloudy,320,2014-02-28 12:00:00
8:00 AM,78.8,68.0,69,29.98,6.2,NNW,5.8,-,N/A,,Partly Cloudy,340,2014-02-28 13:00:00
9:00 AM,80.6,69.8,70,29.98,6.2,SE,10.4,-,N/A,,Partly Cloudy,140,2014-02-28 14:00:00
10:00 AM,82,70,58,30.02,15,SE,10.4,,,,Haze,140,2014-02-28 15:00:00
10:00 AM,82.4,69.8,66,30.01,6.2,SE,10.4,-,N/A,,Partly Cloudy,140,2014-02-28 15:00:00
11:00 AM,82.4,71.6,70,30.01,6.2,South,11.5,-,N/A,,Partly Cloudy,170,2014-02-28 16:00:00
12:00 PM,82.4,69.8,66,30.01,6.2,South,10.4,-,N/A,,Partly Cloudy,190,2014-02-28 17:00:00
1:00 PM,87,74,58,30.00,16,South,12.7,,,,Haze,180,2014-02-28 18:00:00
1:00 PM,87.8,78.8,75,29.98,6.2,South,12.7,-,N/A,,Partly Cloudy,180,2014-02-28 18:00:00
2:00 PM,82.4,71.6,70,29.98,6.2,South,9.2,-,N/A,,Partly Cloudy,190,2014-02-28 19:00:00
3:00 PM,82.4,71.6,70,29.95,6.2,South,9.2,-,N/A,,Partly Cloudy,170,2014-02-28 20:00:00
4:00 PM,83,70,57,29.95,16,South,10.4,,,,Haze,170,2014-02-28 21:00:00
4:00 PM,82.4,69.8,66,29.95,6.2,South,10.4,-,N/A,,Partly Cloudy,170,2014-02-28 21:00:00
5:00 PM,82.4,69.8,66,29.95,6.2,SSE,10.4,-,N/A,,Partly Cloudy,150,2014-02-28 22:00:00
6:00 PM,82.4,69.8,66,29.95,6.2,SE,6.9,-,N/A,,Partly Cloudy,140,2014-02-28 23:00:00
7:00 PM,81,73,72,29.97,12,SE,6.9,,,,Haze,140,2014-03-01 00:00:00
7:00 PM,80.6,73.4,79,29.95,6.2,SE,6.9,-,N/A,,Partly Cloudy,140,2014-03-01 00:00:00
8:00 PM,80.6,71.6,74,29.98,6.2,SE,4.6,-,N/A,,Partly Cloudy,130,2014-03-01 01:00:00
9:00 PM,80.6,71.6,74,29.98,6.2,SSE,3.5,-,N/A,,Partly Cloudy,150,2014-03-01 02:00:00
10:00 PM,79,72,74,29.98,12,NW,3.5,,,,Haze,310,2014-03-01 03:00:00
10:00 PM,78.8,71.6,78,29.98,6.2,NW,3.5,-,N/A,,Scattered Clouds,310,2014-03-01 03:00:00
11:00 PM,78.8,69.8,74,30.01,6.2,North,5.8,-,N/A,,Partly Cloudy,360,2014-03-01 04:00:00